sat.trackr.live / text

‹ back to catalog

STARLINK-5298

NORAD 55281 · 2023-010N

PAYLOAD ACTIVE UNKNOWN

§ Identity

Operator
Country
US
Launch date
2023-01-19
Launch site
AFWTR
Launch vehicle
Mass (kg)
RCS (m²)

Purposes: comms

External: N2YO · Heavens-Above · Gunter

§ Orbital elements

Epoch: 2026-09-20T22:00:03.000096Z

Period
95.79 min
Inclination
69.9992°
Eccentricity
0.0006130
Mean motion
15.03229667 rev/d
Perigee alt
552.7 km
Apogee alt
561.2 km
Semi-major
6,935.1 km
B*
8.1723e-3
RAAN
272.1722°
Arg perigee
259.3378°
Mean anomaly
338.9427°
Rev number
571

§ Raw data

STARLINK-52981 55281U 23010N   26263.91670139  .00112570  00000+0  81723-2 0  99902 55281  69.9992 272.1722 0006130 259.3378 338.9427 15.03229667  5717

JSON: /api/v1/satellites/55281 · /tle

For live sub-satellite position, see the globe view (requires WebGL).

§ Visibility from observer

Set your observer location to see the next 7 days of passes ≥ 10°. The values pass through the URL so the page stays shareable.

No JS? Fill the form by hand. The geolocation button needs JavaScript.